| time (UTC) | temp C | wind direction | speed KPH | gust KPH | rain 1hr cm | rain 24hr cm | rain mn cm | humidity % | barometer mb |
| 20260510061008 | 21 | 89 | 0.0 | 4.8 | 0.00 | 1.27 | 0.00 | 80 | 1011.5 |
| 20260510060507 | 21 | 123 | 1.6 | 4.8 | 0.00 | 1.27 | 0.00 | 80 | 1011.5 |
| 20260510060023 | 21 | 112 | 3.2 | 6.4 | 0.00 | 1.27 | 0.00 | 79 | 1011.5 |
| 20260510055507 | 21 | 137 | 3.2 | 6.4 | 0.00 | 1.27 | 0.00 | 79 | 1011.5 |
| 20260510055009 | 22 | 115 | 1.6 | 4.8 | 0.00 | 1.27 | 0.00 | 79 | 1011.4 |
| 20260510054526 | 22 | 119 | 1.6 | 6.4 | 0.00 | 1.27 | 0.00 | 79 | 1011.4 |
| 20260510054010 | 22 | 96 | 3.2 | 6.4 | 0.00 | 1.27 | 0.00 | 78 | 1011.4 |
| 20260510053514 | 22 | 134 | 1.6 | 4.8 | 0.00 | 1.27 | 0.00 | 78 | 1011.4 |
| 20260510053022 | 22 | 125 | 1.6 | 4.8 | 0.00 | 1.27 | 0.00 | 78 | 1011.4 |
| 20260510052511 | 22 | 102 | 1.6 | 4.8 | 0.00 | 1.27 | 0.00 | 78 | 1011.6 |
| 20260510052008 | 22 | 111 | 1.6 | 4.8 | 0.00 | 1.27 | 0.00 | 78 | 1011.6 |
| 20260510051529 | 22 | 119 | 0.0 | 3.2 | 0.00 | 1.27 | 0.00 | 78 | 1011.5 |
| 20260510051008 | 22 | 136 | 1.6 | 3.2 | 0.00 | 1.27 | 0.00 | 78 | 1011.4 |
| 20260510050508 | 22 | 122 | 0.0 | 3.2 | 0.00 | 1.27 | 0.00 | 78 | 1011.4 |
| 20260510050019 | 22 | 116 | 0.0 | 3.2 | 0.00 | 1.27 | 0.00 | 78 | 1011.4 |
| 20260510045506 | 22 | 121 | 0.0 | 3.2 | 0.00 | 1.27 | 1.27 | 78 | 1011.4 |
| 20260510045008 | 22 | 115 | 0.0 | 3.2 | 0.00 | 1.27 | 1.27 | 78 | 1011.4 |
| 20260510044521 | 22 | 94 | 0.0 | 3.2 | 0.00 | 1.27 | 1.27 | 78 | 1011.3 |
| 20260510044009 | 22 | 94 | 1.6 | 3.2 | 0.00 | 1.27 | 1.27 | 78 | 1011.3 |
| 20260510043510 | 22 | 94 | 1.6 | 3.2 | 0.00 | 1.27 | 1.27 | 79 | 1011.3 |
| 20260510043026 | 22 | 94 | 1.6 | 1.6 | 0.00 | 1.27 | 1.27 | 79 | 1011.4 |
| 20260510042508 | 23 | 94 | 1.6 | 3.2 | 0.00 | 1.27 | 1.27 | 79 | 1011.3 |
| 20260510042009 | 23 | 94 | 1.6 | 3.2 | 0.00 | 1.27 | 1.27 | 78 | 1011.3 |
| 20260510041524 | 23 | 94 | 0.0 | 3.2 | 0.00 | 1.27 | 1.27 | 79 | 1011.2 |
| 20260510041009 | 23 | 94 | 1.6 | 4.8 | 0.00 | 1.27 | 1.27 | 81 | 1011.3 |
| 20260510040510 | 23 | 89 | 3.2 | 4.8 | 0.00 | 1.27 | 1.27 | 82 | 1011.2 |
| 20260510040024 | 23 | 138 | 0.0 | 3.2 | 0.00 | 1.27 | 1.27 | 82 | 1011.1 |
| 20260510035505 | 23 | 138 | 0.0 | 3.2 | 0.00 | 1.27 | 1.27 | 80 | 1011.1 |
| 20260510035005 | 23 | 138 | 0.0 | 0.0 | 0.00 | 1.27 | 1.27 | 79 | 1011.0 |
| 20260510034526 | 23 | 138 | 0.0 | 3.2 | 0.00 | 1.27 | 1.27 | 79 | 1011.0 |
| 20260510034009 | 23 | 145 | 0.0 | 3.2 | 0.00 | 1.27 | 1.27 | 79 | 1011.0 |
| 20260510033511 | 24 | 145 | 0.0 | 3.2 | 0.00 | 1.27 | 1.27 | 79 | 1010.9 |
| 20260510033024 | 24 | 145 | 0.0 | 3.2 | 0.00 | 1.27 | 1.27 | 79 | 1010.8 |
| 20260510032509 | 24 | 145 | 0.0 | 3.2 | 0.00 | 1.27 | 1.27 | 79 | 1010.7 |
| 20260510032011 | 24 | 145 | 0.0 | 3.2 | 0.00 | 1.27 | 1.27 | 79 | 1010.7 |
| 20260510031531 | 24 | 118 | 1.6 | 3.2 | 0.00 | 1.27 | 1.27 | 79 | 1010.7 |
| 20260510030507 | 24 | 117 | 1.6 | 4.8 | 0.00 | 1.27 | 1.27 | 79 | 1010.5 |
| 20260510030016 | 25 | 117 | 1.6 | 4.8 | 0.00 | 1.27 | 1.27 | 78 | 1010.4 |
| 20260510025510 | 25 | 130 | 1.6 | 3.2 | 0.00 | 1.27 | 1.27 | 78 | 1010.3 |
| 20260510025009 | 25 | 125 | 0.0 | 3.2 | 0.00 | 1.27 | 1.27 | 78 | 1010.2 |
| 20260510024522 | 25 | 104 | 0.0 | 3.2 | 0.00 | 1.27 | 1.27 | 78 | 1010.1 |
| 20260510024013 | 25 | 124 | 0.0 | 4.8 | 0.00 | 1.27 | 1.27 | 78 | 1010.0 |
| 20260510023508 | 25 | 130 | 1.6 | 4.8 | 0.00 | 1.27 | 1.27 | 78 | 1010.1 |
| 20260510023024 | 25 | 132 | 1.6 | 4.8 | 0.00 | 1.27 | 1.27 | 78 | 1010.1 |
| 20260510022508 | 25 | 130 | 1.6 | 3.2 | 0.00 | 1.27 | 1.27 | 78 | 1010.0 |
| 20260510022009 | 25 | 132 | 1.6 | 9.7 | 0.00 | 1.27 | 1.27 | 77 | 1010.0 |
| 20260510021533 | 25 | 119 | 1.6 | 9.7 | 0.00 | 1.27 | 1.27 | 76 | 1010.0 |
| 20260510021012 | 26 | 120 | 3.2 | 6.4 | 0.00 | 1.27 | 1.27 | 77 | 1009.9 |
| 20260510020508 | 26 | 121 | 1.6 | 4.8 | 0.00 | 1.27 | 1.27 | 77 | 1009.8 |
| 20260510020028 | 26 | 137 | 1.6 | 3.2 | 0.00 | 1.27 | 1.27 | 77 | 1009.7 |
| 20260510015504 | 26 | 114 | 1.6 | 3.2 | 0.00 | 1.27 | 1.27 | 76 | 1009.7 |
| 20260510015008 | 26 | 99 | 1.6 | 4.8 | 0.00 | 1.27 | 1.27 | 76 | 1009.6 |
| 20260510014517 | 26 | 113 | 1.6 | 6.4 | 0.00 | 1.27 | 1.27 | 76 | 1009.6 |
| 20260510014008 | 26 | 107 | 1.6 | 8.0 | 0.00 | 1.27 | 1.27 | 75 | 1009.6 |
| 20260510013511 | 27 | 94 | 3.2 | 12.9 | 0.00 | 1.27 | 1.27 | 74 | 1009.5 |
| 20260510013023 | 27 | 91 | 3.2 | 12.9 | 0.00 | 1.27 | 1.27 | 74 | 1009.4 |
| 20260510012507 | 27 | 100 | 4.8 | 11.3 | 0.00 | 1.27 | 1.27 | 73 | 1009.3 |
| 20260510012008 | 27 | 91 | 1.6 | 4.8 | 0.00 | 1.27 | 1.27 | 73 | 1009.3 |
| 20260510011524 | 27 | 84 | 1.6 | 4.8 | 0.00 | 1.27 | 1.27 | 72 | 1009.3 |
| 20260510011010 | 27 | 105 | 1.6 | 9.7 | 0.00 | 1.27 | 1.27 | 72 | 1009.3 |
| 20260510010508 | 27 | 126 | 3.2 | 6.4 | 0.00 | 1.27 | 1.27 | 71 | 1009.3 |
| 20260510010010 | 28 | 120 | 3.2 | 6.4 | 0.00 | 1.27 | 1.27 | 71 | 1009.3 |
| 20260510005505 | 28 | 146 | 1.6 | 6.4 | 0.00 | 1.27 | 1.27 | 70 | 1009.2 |
| 20260510005004 | 28 | 146 | 3.2 | 8.0 | 0.00 | 1.27 | 1.27 | 70 | 1009.2 |
| 20260510004518 | 28 | 54 | 3.2 | 9.7 | 0.00 | 1.27 | 1.27 | 70 | 1009.2 |
| 20260510004012 | 28 | 134 | 4.8 | 9.7 | 0.00 | 1.27 | 1.27 | 70 | 1009.2 |
| 20260510003507 | 28 | 111 | 6.4 | 9.7 | 0.00 | 1.27 | 1.27 | 69 | 1009.1 |
| 20260510003004 | 28 | 92 | 3.2 | 9.7 | 0.00 | 1.27 | 1.27 | 69 | 1009.0 |
| 20260510002502 | 28 | 84 | 3.2 | 9.7 | 0.00 | 1.27 | 1.27 | 68 | 1009.0 |
| 20260510002003 | 28 | 98 | 3.2 | 9.7 | 0.00 | 1.27 | 1.27 | 68 | 1009.0 |
| 20260510001004 | 28 | 115 | 4.8 | 6.4 | 0.00 | 1.27 | 1.27 | 67 | 1008.8 |
| 20260510000503 | 28 | 106 | 3.2 | 6.4 | 0.00 | 1.27 | 1.27 | 67 | 1008.8 |
| 20260510000010 | 28 | 88 | 3.2 | 6.4 | 0.00 | 1.27 | 1.27 | 67 | 1008.8 |
| 20260509235502 | 28 | 74 | 4.8 | 8.0 | 0.00 | 1.27 | 1.27 | 67 | 1008.8 |
| 20260509235008 | 28 | 65 | 4.8 | 9.7 | 0.00 | 1.27 | 1.27 | 67 | 1008.8 |
| 20260509234007 | 28 | 69 | 4.8 | 9.7 | 0.00 | 1.27 | 1.27 | 66 | 1008.7 |
| 20260509233503 | 28 | 89 | 3.2 | 6.4 | 0.00 | 1.27 | 1.27 | 67 | 1008.7 |
| 20260509232507 | 28 | 70 | 4.8 | 11.3 | 0.00 | 1.27 | 1.27 | 65 | 1008.5 |
| 20260509232003 | 28 | 85 | 6.4 | 11.3 | 0.00 | 1.27 | 1.27 | 65 | 1008.5 |
| 20260509231503 | 28 | 64 | 4.8 | 12.9 | 0.00 | 1.27 | 1.27 | 65 | 1008.5 |
| 20260509231004 | 28 | 65 | 4.8 | 12.9 | 0.00 | 1.27 | 1.27 | 67 | 1008.5 |
| 20260509230504 | 29 | 57 | 4.8 | 12.9 | 0.00 | 1.27 | 1.27 | 64 | 1008.5 |
| 20260509230008 | 29 | 94 | 4.8 | 9.7 | 0.00 | 1.27 | 1.27 | 66 | 1008.5 |
| 20260509225505 | 29 | 75 | 4.8 | 12.9 | 0.00 | 1.27 | 1.27 | 66 | 1008.6 |
| 20260509225004 | 29 | 64 | 3.2 | 12.9 | 0.00 | 1.27 | 1.27 | 65 | 1008.6 |
| 20260509224007 | 29 | 80 | 6.4 | 9.7 | 0.00 | 1.27 | 1.27 | 62 | 1008.5 |
| 20260509223503 | 29 | 114 | 3.2 | 6.4 | 0.00 | 1.27 | 1.27 | 61 | 1008.6 |
| 20260509223019 | 29 | 141 | 3.2 | 8.0 | 0.00 | 1.27 | 1.27 | 58 | 1008.6 |
| 20260509222506 | 29 | 128 | 3.2 | 8.0 | 0.00 | 1.27 | 1.27 | 56 | 1008.6 |
| 20260509222008 | 29 | 105 | 3.2 | 8.0 | 0.00 | 1.27 | 1.27 | 59 | 1008.6 |
| 20260509221522 | 29 | 133 | 1.6 | 4.8 | 0.00 | 1.27 | 1.27 | 60 | 1008.6 |
| 20260509221009 | 28 | 144 | 0.0 | 3.2 | 0.00 | 1.27 | 1.27 | 59 | 1008.6 |
| 20260509220503 | 28 | 102 | 0.0 | 3.2 | 0.00 | 1.27 | 1.27 | 60 | 1008.5 |
| 20260509220004 | 28 | 216 | 0.0 | 3.2 | 0.00 | 1.27 | 1.27 | 61 | 1008.3 |
| 20260509215504 | 28 | 213 | 0.0 | 4.8 | 0.00 | 1.27 | 1.27 | 63 | 1008.3 |
| 20260509215003 | 27 | 179 | 1.6 | 6.4 | 0.00 | 1.27 | 1.27 | 60 | 1008.5 |
| 20260509214011 | 26 | 225 | 1.6 | 9.7 | 0.23 | 1.27 | 1.27 | 65 | 1008.6 |
| 20260509213504 | 25 | 223 | 3.2 | 11.3 | 0.48 | 1.27 | 1.27 | 65 | 1008.6 |
| 20260509212507 | 23 | 218 | 4.8 | 14.5 | 1.14 | 1.27 | 1.27 | 72 | 1008.9 |
| 20260509212007 | 22 | 250 | 6.4 | 14.5 | 1.22 | 1.27 | 1.27 | 73 | 1009.0 |
| 20260509211520 | 21 | 229 | 4.8 | 12.9 | 1.22 | 1.27 | 1.27 | 71 | 1009.0 |
| 20260509211008 | 21 | 241 | 4.8 | 17.7 | 1.22 | 1.27 | 1.27 | 70 | 1009.1 |
| 20260509210507 | 21 | 179 | 6.4 | 17.7 | 1.22 | 1.27 | 1.27 | 72 | 1009.4 |
| 20260509210030 | 21 | 279 | 8.0 | 17.7 | 1.22 | 1.27 | 1.27 | 75 | 1009.1 |
| 20260509205504 | 21 | 243 | 8.0 | 19.3 | 1.22 | 1.27 | 1.27 | 71 | 1009.0 |
| 20260509205005 | 21 | 217 | 9.7 | 29.0 | 1.22 | 1.27 | 1.27 | 73 | 1009.0 |
| 20260509204509 | 21 | 215 | 8.0 | 32.2 | 1.19 | 1.24 | 1.24 | 77 | 1009.0 |
| 20260509204004 | 21 | 226 | 20.9 | 32.2 | 0.99 | 1.04 | 1.04 | 75 | 1009.7 |
| 20260509203503 | 22 | 257 | 16.1 | 46.7 | 0.74 | 0.79 | 0.79 | 65 | 1010.1 |
| 20260509203014 | 24 | 305 | 22.5 | 51.5 | 0.46 | 0.51 | 0.51 | 61 | 1010.6 |
| 20260509202504 | 26 | 326 | 19.3 | 51.5 | 0.08 | 0.13 | 0.13 | 64 | 1010.4 |
| 20260509202006 | 28 | 360 | 17.7 | 29.0 | 0.00 | 0.05 | 0.05 | 65 | 1009.5 |
| 20260509201010 | 30 | 93 | 4.8 | 11.3 | 0.00 | 0.05 | 0.05 | 59 | 1009.5 |
| 20260509200507 | 31 | 98 | 1.6 | 8.0 | 0.00 | 0.05 | 0.05 | 58 | 1009.4 |
| 20260509200020 | 31 | 176 | 1.6 | 12.9 | 0.00 | 0.05 | 0.05 | 56 | 1009.5 |
| 20260509195511 | 31 | 88 | 4.8 | 12.9 | 0.00 | 0.05 | 0.05 | 57 | 1009.5 |
| 20260509195012 | 32 | 150 | 4.8 | 12.9 | 0.00 | 0.05 | 0.05 | 59 | 1009.5 |
| 20260509194004 | 31 | 146 | 3.2 | 11.3 | 0.00 | 0.05 | 0.05 | 58 | 1009.6 |
| 20260509193506 | 31 | 217 | 3.2 | 16.1 | 0.00 | 0.05 | 0.05 | 59 | 1009.7 |
| 20260509192504 | 31 | 74 | 1.6 | 11.3 | 0.00 | 0.05 | 0.05 | 61 | 1009.8 |
| 20260509192005 | 31 | 126 | 3.2 | 11.3 | 0.00 | 0.05 | 0.05 | 58 | 1009.9 |
| 20260509191007 | 31 | 126 | 3.2 | 6.4 | 0.00 | 0.05 | 0.05 | 60 | 1009.9 |
| 20260509190506 | 31 | 144 | 3.2 | 11.3 | 0.00 | 0.05 | 0.05 | 60 | 1010.1 |
| 20260509185509 | 31 | 67 | 3.2 | 11.3 | 0.00 | 0.05 | 0.05 | 63 | 1010.2 |
| 20260509185007 | 31 | 148 | 3.2 | 9.7 | 0.00 | 0.05 | 0.05 | 64 | 1010.3 |
| 20260509184526 | 31 | 226 | 4.8 | 9.7 | 0.00 | 0.05 | 0.05 | 61 | 1010.3 |
| 20260509184010 | 30 | 188 | 3.2 | 11.3 | 0.00 | 0.05 | 0.05 | 63 | 1010.5 |
| 20260509183503 | 30 | 236 | 3.2 | 8.0 | 0.00 | 0.05 | 0.05 | 63 | 1010.7 |
| 20260509183009 | 30 | 352 | 1.6 | 6.4 | 0.00 | 0.05 | 0.05 | 64 | 1010.7 |
| 20260509182505 | 29 | 252 | 1.6 | 8.0 | 0.00 | 0.05 | 0.05 | 68 | 1010.9 |
| 20260509182003 | 30 | 9 | 1.6 | 8.0 | 0.00 | 0.05 | 0.05 | 66 | 1010.9 |
| 20260509181517 | 30 | 252 | 1.6 | 12.9 | 0.00 | 0.05 | 0.05 | 68 | 1010.9 |
| 20260509181008 | 29 | 126 | 4.8 | 12.9 | 0.00 | 0.05 | 0.05 | 67 | 1011.0 |
| 20260509180508 | 29 | 325 | 1.6 | 11.3 | 0.00 | 0.05 | 0.05 | 65 | 1011.0 |
| 20260509180019 | 30 | 207 | 1.6 | 12.9 | 0.00 | 0.05 | 0.05 | 70 | 1011.0 |
| 20260509175508 | 29 | 256 | 3.2 | 12.9 | 0.00 | 0.05 | 0.05 | 67 | 1011.0 |
| 20260509174007 | 28 | 263 | 1.6 | 11.3 | 0.00 | 0.05 | 0.05 | 71 | 1011.3 |
| 20260509173507 | 28 | 271 | 3.2 | 12.9 | 0.00 | 0.05 | 0.05 | 70 | 1011.4 |
| 20260509173024 | 29 | 213 | 4.8 | 12.9 | 0.00 | 0.05 | 0.05 | 70 | 1011.5 |
| 20260509172512 | 28 | 173 | 4.8 | 11.3 | 0.00 | 0.05 | 0.05 | 73 | 1011.6 |
| 20260509172004 | 28 | 160 | 3.2 | 11.3 | 0.00 | 0.05 | 0.05 | 73 | 1011.6 |
| 20260509171010 | 28 | 204 | 3.2 | 11.3 | 0.00 | 0.05 | 0.05 | 74 | 1011.6 |
| 20260509170507 | 27 | 113 | 3.2 | 11.3 | 0.00 | 0.05 | 0.05 | 76 | 1011.6 |
| 20260509165505 | 26 | 181 | 3.2 | 9.7 | 0.00 | 0.05 | 0.05 | 78 | 1011.8 |
| 20260509165006 | 26 | 153 | 3.2 | 9.7 | 0.00 | 0.05 | 0.05 | 79 | 1011.8 |
| 20260509164010 | 26 | 252 | 1.6 | 6.4 | 0.00 | 0.05 | 0.05 | 80 | 1011.9 |
| 20260509163510 | 26 | 248 | 1.6 | 6.4 | 0.00 | 0.05 | 0.05 | 80 | 1011.8 |
| 20260509162011 | 26 | 139 | 3.2 | 6.4 | 0.00 | 0.05 | 0.05 | 81 | 1011.8 |
| 20260509161525 | 26 | 195 | 1.6 | 8.0 | 0.00 | 0.05 | 0.05 | 82 | 1011.7 |
| 20260509161010 | 25 | 200 | 3.2 | 8.0 | 0.00 | 0.05 | 0.05 | 82 | 1011.7 |
| 20260509160504 | 26 | 128 | 1.6 | 6.4 | 0.00 | 0.05 | 0.05 | 83 | 1011.8 |
| 20260509160022 | 26 | 196 | 1.6 | 6.4 | 0.00 | 0.05 | 0.05 | 82 | 1011.7 |
| 20260509155509 | 25 | 216 | 3.2 | 6.4 | 0.00 | 0.05 | 0.05 | 82 | 1011.6 |
| 20260509155009 | 25 | 156 | 1.6 | 6.4 | 0.00 | 0.05 | 0.05 | 83 | 1011.6 |
| 20260509153508 | 26 | 164 | 3.2 | 9.7 | 0.00 | 0.05 | 0.05 | 82 | 1011.6 |
| 20260509152504 | 25 | 172 | 1.6 | 8.0 | 0.00 | 0.05 | 0.05 | 84 | 1011.5 |
| 20260509152006 | 25 | 225 | 1.6 | 8.0 | 0.00 | 0.05 | 0.05 | 85 | 1011.6 |
| 20260509151509 | 25 | 237 | 3.2 | 8.0 | 0.00 | 0.05 | 0.05 | 84 | 1011.7 |
| 20260509150504 | 25 | 153 | 1.6 | 9.7 | 0.00 | 0.05 | 0.05 | 86 | 1011.8 |
| 20260509145504 | 25 | 209 | 0.0 | 8.0 | 0.00 | 0.05 | 0.05 | 92 | 1011.6 |
| 20260509145008 | 24 | 182 | 1.6 | 8.0 | 0.00 | 0.05 | 0.05 | 92 | 1011.5 |
| 20260509144012 | 23 | 204 | 3.2 | 14.5 | 0.00 | 0.05 | 0.05 | 94 | 1011.7 |
| 20260509143512 | 23 | 65 | 3.2 | 14.5 | 0.00 | 0.05 | 0.05 | 94 | 1011.3 |
| 20260509142008 | 23 | 144 | 4.8 | 8.0 | 0.00 | 0.05 | 0.05 | 94 | 1011.4 |
| 20260509141510 | 22 | 94 | 1.6 | 6.4 | 0.00 | 0.05 | 0.05 | 95 | 1011.4 |
| 20260509141004 | 22 | 131 | 1.6 | 6.4 | 0.00 | 0.05 | 0.05 | 95 | 1011.5 |
| 20260509140503 | 22 | 133 | 1.6 | 3.2 | 0.00 | 0.05 | 0.05 | 94 | 1011.6 |
| 20260509140010 | 22 | 121 | 0.0 | 3.2 | 0.00 | 0.05 | 0.05 | 95 | 1011.8 |
| 20260509135505 | 22 | 132 | 1.6 | 3.2 | 0.00 | 0.05 | 0.05 | 95 | 1011.7 |
| 20260509135005 | 22 | 120 | 0.0 | 3.2 | 0.00 | 0.05 | 0.05 | 95 | 1011.6 |
| 20260509134010 | 22 | 136 | 0.0 | 3.2 | 0.00 | 0.05 | 0.05 | 95 | 1011.5 |
| 20260509133507 | 22 | 129 | 0.0 | 3.2 | 0.00 | 0.05 | 0.05 | 95 | 1011.5 |
| 20260509133021 | 22 | 137 | 1.6 | 3.2 | 0.00 | 0.05 | 0.05 | 95 | 1011.6 |
| 20260509132511 | 22 | 130 | 0.0 | 6.4 | 0.00 | 0.05 | 0.05 | 95 | 1011.6 |
| 20260509132010 | 22 | 136 | 0.0 | 9.7 | 0.00 | 0.05 | 0.05 | 94 | 1011.6 |
| 20260509131536 | 22 | 130 | 1.6 | 9.7 | 0.00 | 0.05 | 0.05 | 94 | 1011.5 |
| 20260509131011 | 22 | 121 | 3.2 | 8.0 | 0.00 | 0.05 | 0.05 | 94 | 1011.3 |
| 20260509130504 | 22 | 148 | 1.6 | 4.8 | 0.00 | 0.05 | 0.05 | 94 | 1011.3 |
| 20260509125511 | 22 | 129 | 1.6 | 9.7 | 0.00 | 0.05 | 0.05 | 94 | 1011.2 |
| 20260509125008 | 22 | 140 | 1.6 | 6.4 | 0.00 | 0.05 | 0.05 | 94 | 1011.2 |
| 20260509124520 | 22 | 140 | 3.2 | 6.4 | 0.00 | 0.05 | 0.05 | 94 | 1011.3 |
| 20260509124003 | 22 | 135 | 1.6 | 3.2 | 0.00 | 0.05 | 0.05 | 94 | 1011.3 |
| 20260509123506 | 22 | 127 | 0.0 | 4.8 | 0.00 | 0.05 | 0.05 | 94 | 1011.1 |
| 20260509123019 | 22 | 254 | 0.0 | 4.8 | 0.00 | 0.05 | 0.05 | 94 | 1010.8 |
| 20260509122507 | 22 | 266 | 1.6 | 9.7 | 0.00 | 0.05 | 0.05 | 95 | 1010.9 |
| 20260509122008 | 22 | 320 | 4.8 | 9.7 | 0.00 | 0.05 | 0.05 | 94 | 1011.1 |
| 20260509121527 | 22 | 324 | 4.8 | 8.0 | 0.00 | 0.05 | 0.05 | 94 | 1011.0 |
| 20260509121011 | 22 | 329 | 3.2 | 8.0 | 0.00 | 0.05 | 0.05 | 94 | 1011.0 |
| 20260509120507 | 22 | 317 | 3.2 | 8.0 | 0.00 | 0.05 | 0.05 | 94 | 1010.9 |
| 20260509120025 | 22 | 318 | 4.8 | 8.0 | 0.03 | 0.05 | 0.05 | 94 | 1011.0 |
| 20260509115503 | 22 | 316 | 3.2 | 8.0 | 0.03 | 0.05 | 0.05 | 94 | 1011.3 |
| 20260509115003 | 22 | 352 | 3.2 | 6.4 | 0.03 | 0.05 | 0.05 | 94 | 1011.4 |
| 20260509114008 | 22 | 321 | 4.8 | 11.3 | 0.03 | 0.05 | 0.05 | 94 | 1011.4 |
| 20260509113503 | 22 | 302 | 3.2 | 8.0 | 0.03 | 0.05 | 0.05 | 94 | 1011.4 |
| 20260509112507 | 22 | 346 | 0.0 | 3.2 | 0.03 | 0.05 | 0.05 | 94 | 1011.3 |
| 20260509112007 | 22 | 352 | 1.6 | 4.8 | 0.03 | 0.05 | 0.05 | 94 | 1011.7 |
| 20260509111522 | 22 | 331 | 0.0 | 6.4 | 0.03 | 0.05 | 0.05 | 94 | 1011.8 |
| 20260509111008 | 22 | 22 | 1.6 | 11.3 | 0.03 | 0.05 | 0.05 | 94 | 1011.9 |
| 20260509110509 | 22 | 352 | 6.4 | 11.3 | 0.03 | 0.05 | 0.05 | 94 | 1011.8 |
| 20260509110024 | 22 | 32 | 3.2 | 8.0 | 0.00 | 0.03 | 0.03 | 94 | 1012.0 |
| 20260509105511 | 22 | 28 | 1.6 | 6.4 | 0.00 | 0.03 | 0.03 | 94 | 1012.0 |
| 20260509105010 | 22 | 50 | 3.2 | 6.4 | 0.00 | 0.03 | 0.03 | 94 | 1012.1 |
| 20260509104527 | 22 | 360 | 3.2 | 4.8 | 0.00 | 0.03 | 0.03 | 94 | 1011.9 |
| 20260509104004 | 22 | 319 | 1.6 | 4.8 | 0.00 | 0.03 | 0.03 | 94 | 1011.8 |
| 20260509103504 | 22 | 15 | 1.6 | 4.8 | 0.00 | 0.03 | 0.03 | 94 | 1011.8 |
| 20260509103015 | 22 | 360 | 3.2 | 4.8 | 0.00 | 0.03 | 0.03 | 94 | 1011.9 |
| 20260509102507 | 22 | 34 | 0.0 | 3.2 | 0.00 | 0.03 | 0.03 | 94 | 1011.8 |
| 20260509102010 | 22 | 36 | 0.0 | 0.0 | 0.00 | 0.03 | 0.03 | 94 | 1011.6 |
| 20260509101532 | 22 | 36 | 0.0 | 0.0 | 0.00 | 0.03 | 0.03 | 94 | 1011.3 |
| 20260509101008 | 22 | 36 | 0.0 | 0.0 | 0.00 | 0.03 | 0.03 | 94 | 1011.2 |
| 20260509100507 | 22 | 36 | 0.0 | 1.6 | 0.00 | 0.03 | 0.03 | 94 | 1011.1 |
| 20260509100025 | 22 | 36 | 0.0 | 1.6 | 0.00 | 0.03 | 0.03 | 94 | 1011.1 |
| 20260509095508 | 22 | 36 | 0.0 | 1.6 | 0.00 | 0.03 | 0.03 | 94 | 1010.9 |
| 20260509095008 | 22 | 36 | 0.0 | 0.0 | 0.03 | 0.03 | 0.03 | 94 | 1010.8 |
| 20260509094526 | 22 | 36 | 0.0 | 1.6 | 0.03 | 0.03 | 0.03 | 94 | 1010.8 |
| 20260509094008 | 22 | 36 | 0.0 | 1.6 | 0.03 | 0.03 | 0.03 | 94 | 1010.7 |
| 20260509093012 | 22 | 36 | 0.0 | 3.2 | 0.03 | 0.03 | 0.03 | 94 | 1010.9 |
| 20260509092504 | 22 | 36 | 0.0 | 3.2 | 0.03 | 0.03 | 0.03 | 94 | 1010.9 |
| 20260509092004 | 22 | 36 | 0.0 | 3.2 | 0.03 | 0.03 | 0.03 | 94 | 1010.7 |
| 20260509091520 | 22 | 36 | 0.0 | 3.2 | 0.03 | 0.03 | 0.03 | 94 | 1010.6 |
| 20260509091004 | 22 | 36 | 0.0 | 3.2 | 0.03 | 0.03 | 0.03 | 94 | 1010.5 |
| 20260509090508 | 22 | 36 | 1.6 | 3.2 | 0.03 | 0.03 | 0.03 | 93 | 1010.6 |
| 20260509090021 | 22 | 36 | 1.6 | 3.2 | 0.03 | 0.03 | 0.03 | 93 | 1010.7 |
| 20260509085508 | 22 | 36 | 0.0 | 3.2 | 0.03 | 0.03 | 0.03 | 93 | 1010.7 |
| 20260509085007 | 22 | 36 | 1.6 | 4.8 | 0.00 | 0.00 | 0.00 | 93 | 1010.8 |
| 20260509084523 | 22 | 36 | 1.6 | 4.8 | 0.00 | 0.00 | 0.00 | 93 | 1010.8 |
| 20260509084006 | 22 | 36 | 1.6 | 6.4 | 0.00 | 0.00 | 0.00 | 93 | 1010.8 |
| 20260509083513 | 22 | 48 | 3.2 | 6.4 | 0.00 | 0.00 | 0.00 | 93 | 1010.9 |
| 20260509083025 | 22 | 40 | 3.2 | 6.4 | 0.00 | 0.00 | 0.00 | 93 | 1010.9 |
| 20260509082511 | 22 | 63 | 3.2 | 4.8 | 0.00 | 0.00 | 0.00 | 93 | 1011.0 |
| 20260509082007 | 22 | 13 | 3.2 | 4.8 | 0.00 | 0.00 | 0.00 | 93 | 1011.1 |
| 20260509081514 | 22 | 31 | 3.2 | 4.8 | 0.00 | 0.00 | 0.00 | 93 | 1011.2 |
| 20260509081008 | 22 | 25 | 1.6 | 4.8 | 0.00 | 0.00 | 0.00 | 93 | 1011.2 |
| 20260509080506 | 22 | 63 | 0.0 | 4.8 | 0.00 | 0.00 | 0.00 | 93 | 1010.9 |
| 20260509080022 | 22 | 65 | 1.6 | 3.2 | 0.00 | 0.00 | 0.00 | 93 | 1010.7 |
| 20260509075505 | 22 | 102 | 0.0 | 4.8 | 0.00 | 0.00 | 0.00 | 92 | 1010.7 |
| 20260509075008 | 22 | 102 | 1.6 | 4.8 | 0.00 | 0.00 | 0.00 | 92 | 1010.7 |
| 20260509074522 | 22 | 102 | 1.6 | 4.8 | 0.00 | 0.00 | 0.00 | 92 | 1010.8 |
| 20260509074008 | 22 | 98 | 1.6 | 3.2 | 0.00 | 0.00 | 0.00 | 92 | 1010.7 |
| 20260509073508 | 22 | 165 | 1.6 | 3.2 | 0.00 | 0.00 | 0.00 | 92 | 1010.9 |
| 20260509073025 | 22 | 119 | 0.0 | 4.8 | 0.00 | 0.00 | 0.00 | 92 | 1011.1 |
| 20260509072509 | 22 | 119 | 1.6 | 4.8 | 0.00 | 0.00 | 0.00 | 92 | 1010.9 |
| 20260509072010 | 22 | 129 | 0.0 | 4.8 | 0.00 | 0.00 | 0.00 | 92 | 1010.9 |
| 20260509071526 | 22 | 129 | 0.0 | 4.8 | 0.00 | 0.00 | 0.00 | 92 | 1011.1 |
| 20260509071010 | 22 | 213 | 0.0 | 3.2 | 0.00 | 0.00 | 0.00 | 92 | 1011.1 |
| 20260509070507 | 22 | 177 | 0.0 | 8.0 | 0.00 | 0.00 | 0.00 | 92 | 1011.2 |
| 20260509070018 | 22 | 127 | 0.0 | 8.0 | 0.00 | 0.00 | 0.00 | 92 | 1011.0 |
| 20260509065506 | 22 | 112 | 1.6 | 6.4 | 0.00 | 0.00 | 0.00 | 92 | 1010.9 |
| 20260509065008 | 22 | 133 | 1.6 | 8.0 | 0.00 | 0.00 | 0.00 | 92 | 1010.9 |
| 20260509064524 | 22 | 121 | 1.6 | 11.3 | 0.00 | 0.00 | 0.00 | 92 | 1010.8 |
| 20260509064010 | 22 | 136 | 4.8 | 11.3 | 0.00 | 0.00 | 0.00 | 92 | 1010.8 |
| 20260509063511 | 22 | 123 | 3.2 | 8.0 | 0.00 | 0.00 | 0.00 | 92 | 1010.7 |
| 20260509063007 | 22 | 109 | 3.2 | 8.0 | 0.00 | 0.00 | 0.00 | 92 | 1010.7 |
| 20260509062503 | 22 | 126 | 1.6 | 9.7 | 0.00 | 0.00 | 0.00 | 92 | 1010.8 |
| 20260509062004 | 22 | 116 | 1.6 | 9.7 | 0.00 | 0.00 | 0.00 | 92 | 1010.9 |
| 20260509061508 | 22 | 230 | 1.6 | 8.0 | 0.00 | 0.00 | 0.00 | 92 | 1010.8 |